OBJECT K, 44395

Orbit data source: Space-Track

You're viewing an Uncataloged Satellite

Recently launched and/or uncataloged satellites may have evolving metadata. Metadata may include but not limited to: Owner, Maufacturer, Bus, Motor, and Mission.

OBJECT K, 44395 is a satellite in SSO that was launched on Fri, 05 Jul 2019 UTC via a SOYUZ-2-1B launch vehicle from the Vostochny Cosmodrome (VOSTO). Unknown objects in Earth's orbit typically refer to objects detected orbiting the Earth but have not yet been identified or cataloged. These objects could be anything from previously untracked satellites, spent rocket stages, debris from satellite collisions, or even natural meteoroids temporarily captured by Earth's gravity.

Loading next visibility...
OBJECT K details
Identifier
44395, 2019-038K
Orbit
SSO
Last TLE update22 hours ago
Origin
Flag of TBDUTE (TBD)
ManufacturerUTE/YUZGU
MissionNon-operational Amateur Technology
Bus & MotorCUBESAT 3U, Unknown motor
Mass4 kg wet, 4 kg dry
Launch date (UTC)
2019-07-05 (5 years ago)
Launch vehicle
SOYUZ-2-1B
Launch site
Vostochny Cosmodrome (VOSTO)
Object typeUnknown
Shape & HBRBox + 4 Ant, Unknown HBR
Radar Cross Section0.031 m², Medium (>0.1 m² and < 1m²)

Expand to show TLE details & history

TLE from 22 hours ago
0 OBJECT K
1 44395U 19038K   24360.55264493  .00069446  00000-0  11037-2 0  9992
2 44395  97.7111   5.3296 0012782 128.8927 231.3467 15.53000061303570
Epoch: 2024-12-25T13:15Z
Definitive object data (Epoch: 2024-12-25T13:15:48.521Z)
Latitude-0.00007°
Longitude71.83269°
Altitude416.524 km
Speed7.658 km/s
True Right ascension00h 21m 19s
True Declination0° 00' 00"
Sunlit
Object was in daylight at TLE epoch
Visualization TLE readout
Latitude16.53656°
Longitude70.51382°
Altitude412.887 km
Speed7.663 km/s
Apparent Right ascension23h 26m 31s
Apparent Declination-11° 00' 10"
Sunlit
Object is in daylight
Visualization observer readout
Local Sidereal Time10:20:17
Azimuth328.548° NNW
Elevation-57.579°
Doppler factor1
Orbital elements
Apogee altitude413.578 km
Perigee altitude396.238 km
Semi-major axis6,783.045 km
Eccentricity0.0012782
Inclination97.7111°
RAAN5.3296°
Arg. of periapsis128.8927°
True anomaly231.23243°
Mean anomaly231.3467°
Eccentric anomaly231.28955°
Mean motion3.88514 °/min
BSTAR0.0011037
Orbital period92.66 mins
Loading maneuver chart data...

OBJECT K Visibility forecast

Observer location: undefined°, undefined

Span
Click to sort rows by Start time (UTC) header in descending order
Start Az.
Max El. time (UTC)
Max El. Az.
Max El.
End time (UTC)
End Az.
5 mins2024-12-26 13:01:01.015Z33.604° NE2024-12-26 13:04:01.015Z113.87° SE27.528°2024-12-26 13:06:01.015Z160.751° S
4 mins2024-12-27 00:58:01.015Z199.717° SSW2024-12-27 01:00:01.015Z268.311° W31.841°2024-12-27 01:02:01.015Z324.936° NNW
|